User: anonymous   Login
Location: Franzen
(48.6167°N, 15.3833°E)
Time: 13:57:11
(UTC+00:00)
Language:

Meteor 1-20 Rocket - Orbit

View from above orbital plane
View from above orbital plane
View from above satellite
View from above satellite

Ground track
Ground track

The orbit data is extracted from the following two-line orbital elements,

1 07575U 74099B   21170.67151311  .00000119  00000-0  58146-4 0  9998
2 07575  81.2456 326.8797 0051426  81.8389 278.8611 14.11090979392771
Epoch (UTC): 19 June 2021 16:06:58
Eccentricity: 0.0051426
inclination: 81.2456°
perigee height: 818 km
apogee height: 893 km
right ascension of ascending node: 326.8797°
argument of perigee: 81.8389°
revolutions per day: 14.11090979
mean anomaly at epoch: 278.8611°
orbit number at epoch: 39277

The dashed part of the orbit path shows where the satellite is in the earth's shadow,  

DLR